Time,TemperatureF,DewpointF,PressureIn,WindDirection,WindDirectionDegrees,WindSpeedMPH,WindSpeedGustMPH,Humidity,HourlyPrecipIn,Conditions,Clouds,dailyrainin,SoftwareType,DateUTC
2013-02-06 00:00:00,51.5,49.3,29.92,SW,228,15.0,15.0,92,0.00,,,0.00,WeatherDisplay:10.37,2013-02-05 23:00:00,
2013-02-06 00:05:00,51.4,49.2,29.91,West,272,16.1,16.1,92,0.00,,,0.00,WeatherDisplay:10.37,2013-02-05 23:05:00,
2013-02-06 00:10:00,51.4,48.9,29.91,WSW,248,13.8,13.8,91,0.00,,,0.00,WeatherDisplay:10.37,2013-02-05 23:10:00,
2013-02-06 00:15:00,51.5,49.0,29.91,NW,308,13.8,13.8,91,0.00,,,0.00,WeatherDisplay:10.37,2013-02-05 23:15:00,
2013-02-06 00:20:00,51.6,48.8,29.91,West,268,19.6,19.6,90,0.00,,,0.00,WeatherDisplay:10.37,2013-02-05 23:20:00,
2013-02-06 00:25:00,51.6,48.5,29.90,West,269,13.8,13.8,89,0.00,,,0.00,WeatherDisplay:10.37,2013-02-05 23:25:00,
2013-02-06 00:30:00,51.8,48.7,29.90,West,264,15.0,15.0,89,0.00,,,0.00,WeatherDisplay:10.37,2013-02-05 23:30:00,
2013-02-06 00:35:00,51.8,48.4,29.89,WSW,249,12.7,12.7,88,0.00,,,0.00,WeatherDisplay:10.37,2013-02-05 23:35:00,
2013-02-06 00:40:00,51.8,48.4,29.89,West,272,15.0,15.0,88,0.00,,,0.00,WeatherDisplay:10.37,2013-02-05 23:40:00,
2013-02-06 00:45:00,52.1,48.7,29.90,WSW,256,15.0,15.0,88,0.00,,,0.00,WeatherDisplay:10.37,2013-02-05 23:45:00,
2013-02-06 00:50:00,52.6,48.8,29.89,West,268,16.1,16.1,87,0.00,,,0.00,WeatherDisplay:10.37,2013-02-05 23:50:00,
2013-02-06 00:55:00,52.6,48.8,29.88,West,265,15.0,15.0,87,0.00,,,0.00,WeatherDisplay:10.37,2013-02-05 23:55:00,
2013-02-06 01:00:00,52.6,48.8,29.88,West,267,13.8,13.8,87,0.00,,,0.00,WeatherDisplay:10.37,2013-02-06 00:00:00,
2013-02-06 01:05:00,52.6,48.8,29.88,WNW,300,17.3,17.3,87,0.00,,,0.00,WeatherDisplay:10.37,2013-02-06 00:05:00,
2013-02-06 01:10:00,52.6,48.8,29.88,WSW,251,16.1,16.1,87,0.00,,,0.00,WeatherDisplay:10.37,2013-02-06 00:10:00,
2013-02-06 01:15:00,52.6,48.8,29.88,West,280,15.0,15.0,87,0.00,,,0.00,WeatherDisplay:10.37,2013-02-06 00:15:00,
2013-02-06 01:20:00,52.6,48.8,29.87,West,264,13.0,13.0,87,0.00,,,0.00,WeatherDisplay:10.37,2013-02-06 00:20:00,
2013-02-06 01:25:00,52.7,48.9,29.87,West,264,12.7,12.7,87,0.00,,,0.00,WeatherDisplay:10.37,2013-02-06 00:25:00,
2013-02-06 01:30:00,52.7,48.9,29.86,WNW,284,12.0,12.0,87,0.00,,,0.00,WeatherDisplay:10.37,2013-02-06 00:30:00,
2013-02-06 01:35:00,52.8,49.0,29.86,West,272,13.8,13.8,87,0.00,,,0.00,WeatherDisplay:10.37,2013-02-06 00:35:00,
2013-02-06 01:40:00,52.7,48.9,29.85,West,281,12.7,12.7,87,0.00,,,0.00,WeatherDisplay:10.37,2013-02-06 00:40:00,
2013-02-06 01:45:00,52.7,48.9,29.85,WSW,238,12.7,12.7,87,0.00,,,0.00,WeatherDisplay:10.37,2013-02-06 00:45:00,
2013-02-06 01:50:00,52.6,49.1,29.85,West,273,16.1,16.1,88,0.00,,,0.00,WeatherDisplay:10.37,2013-02-06 00:50:00,
2013-02-06 01:55:00,52.6,49.1,29.85,WNW,289,13.8,13.8,88,0.00,,,0.00,WeatherDisplay:10.37,2013-02-06 00:55:00,
2013-02-06 02:00:00,52.5,49.0,29.85,WSW,247,13.8,13.8,88,0.00,,,0.00,WeatherDisplay:10.37,2013-02-06 01:00:00,
2013-02-06 02:05:00,52.5,49.4,29.85,West,264,19.6,19.6,89,0.00,,,0.00,WeatherDisplay:10.37,2013-02-06 01:05:00,
2013-02-06 02:10:00,52.4,49.6,29.85,WNW,295,19.6,19.6,90,0.00,,,0.00,WeatherDisplay:10.37,2013-02-06 01:10:00,
2013-02-06 02:15:00,52.4,49.6,29.85,West,262,15.0,15.0,90,0.00,,,0.00,WeatherDisplay:10.37,2013-02-06 01:15:00,
2013-02-06 02:20:00,52.4,49.6,29.85,NW,312,15.0,15.0,90,0.00,,,0.00,WeatherDisplay:10.37,2013-02-06 01:20:00,
2013-02-06 02:25:00,52.4,49.6,29.84,West,279,15.0,15.0,90,0.00,,,0.00,WeatherDisplay:10.37,2013-02-06 01:25:00,
2013-02-06 02:30:00,52.3,49.8,29.84,WSW,257,17.3,17.3,91,0.00,,,0.00,WeatherDisplay:10.37,2013-02-06 01:30:00,
2013-02-06 02:35:00,52.3,49.8,29.84,NW,319,15.0,15.0,91,0.00,,,0.00,WeatherDisplay:10.37,2013-02-06 01:35:00,
2013-02-06 02:40:00,52.4,49.8,29.83,WSW,248,16.1,16.1,91,0.00,,,0.00,WeatherDisplay:10.37,2013-02-06 01:40:00,
2013-02-06 02:45:00,52.3,49.8,29.83,WNW,299,17.3,17.3,91,0.00,,,0.00,WeatherDisplay:10.37,2013-02-06 01:45:00,
2013-02-06 02:50:00,52.3,50.0,29.83,NW,318,16.1,16.1,92,0.00,,,0.00,WeatherDisplay:10.37,2013-02-06 01:50:00,
2013-02-06 02:55:00,52.3,50.0,29.82,WNW,289,17.3,17.3,92,0.00,,,0.00,WeatherDisplay:10.37,2013-02-06 01:55:00,
2013-02-06 03:00:00,52.3,49.8,29.82,WNW,287,16.1,16.1,91,0.00,,,0.00,WeatherDisplay:10.37,2013-02-06 02:00:00,
2013-02-06 03:05:00,52.4,50.1,29.82,WNW,282,19.6,19.6,92,0.00,,,0.00,WeatherDisplay:10.37,2013-02-06 02:05:00,
2013-02-06 03:10:00,52.4,50.1,29.82,WNW,297,16.1,16.1,92,0.00,,,0.00,WeatherDisplay:10.37,2013-02-06 02:10:00,
2013-02-06 03:15:00,52.3,50.0,29.82,WNW,300,16.1,16.1,92,0.00,,,0.00,WeatherDisplay:10.37,2013-02-06 02:15:00,
2013-02-06 03:20:00,52.3,50.0,29.81,West,272,11.5,11.5,92,0.00,,,0.00,WeatherDisplay:10.37,2013-02-06 02:20:00,
2013-02-06 03:25:00,52.4,50.1,29.81,WNW,285,11.5,11.5,92,0.00,,,0.00,WeatherDisplay:10.37,2013-02-06 02:25:00,
2013-02-06 03:30:00,52.4,50.1,29.81,WNW,283,12.7,12.7,92,0.00,,,0.00,WeatherDisplay:10.37,2013-02-06 02:30:00,
2013-02-06 03:35:00,52.4,50.1,29.80,WNW,287,12.7,12.7,92,0.00,,,0.00,WeatherDisplay:10.37,2013-02-06 02:35:00,
2013-02-06 03:40:00,52.4,50.1,29.80,WNW,285,19.6,19.6,92,0.00,,,0.00,WeatherDisplay:10.37,2013-02-06 02:40:00,
2013-02-06 03:45:00,52.2,49.9,29.81,NW,321,13.8,13.8,92,0.00,,,0.00,WeatherDisplay:10.37,2013-02-06 02:45:00,
2013-02-06 03:50:00,52.0,49.7,29.81,NW,319,14.0,14.0,92,0.00,,,0.00,WeatherDisplay:10.37,2013-02-06 02:50:00,
2013-02-06 03:55:00,51.8,49.5,29.81,NW,320,11.5,11.5,92,0.00,,,0.00,WeatherDisplay:10.37,2013-02-06 02:55:00,
2013-02-06 04:00:00,51.6,49.1,29.81,NNW,347,19.6,19.6,91,0.00,,,0.00,WeatherDisplay:10.37,2013-02-06 03:00:00,
2013-02-06 04:05:00,52.1,48.7,29.81,NNW,331,12.7,12.7,88,0.00,,,0.00,WeatherDisplay:10.37,2013-02-06 03:05:00,
2013-02-06 04:10:00,52.0,48.3,29.81,North,354,15.0,15.0,87,0.00,,,0.00,WeatherDisplay:10.37,2013-02-06 03:10:00,
2013-02-06 04:15:00,51.5,48.1,29.80,NNW,330,16.1,16.1,88,0.00,,,0.00,WeatherDisplay:10.37,2013-02-06 03:15:00,
2013-02-06 04:20:00,51.2,47.8,29.80,NNW,340,16.1,16.1,88,0.00,,,0.00,WeatherDisplay:10.37,2013-02-06 03:20:00,
2013-02-06 04:25:00,50.9,47.8,29.80,NW,325,15.0,15.0,89,0.00,,,0.00,WeatherDisplay:10.37,2013-02-06 03:25:00,
2013-02-06 04:30:00,50.6,47.5,29.80,NNW,332,16.1,16.1,89,0.00,,,0.00,WeatherDisplay:10.37,2013-02-06 03:30:00,
2013-02-06 04:35:00,50.6,47.2,29.80,NNW,332,16.1,16.1,88,0.00,,,0.00,WeatherDisplay:10.37,2013-02-06 03:35:00,
2013-02-06 04:40:00,50.6,47.2,29.80,NNW,336,18.4,18.4,88,0.00,,,0.00,WeatherDisplay:10.37,2013-02-06 03:40:00,
2013-02-06 04:45:00,50.3,46.9,29.80,WNW,302,15.0,15.0,88,0.00,,,0.00,WeatherDisplay:10.37,2013-02-06 03:45:00,
2013-02-06 04:50:00,50.4,46.7,29.80,NNW,348,12.0,12.0,87,0.00,,,0.00,WeatherDisplay:10.37,2013-02-06 03:50:00,
2013-02-06 04:55:00,50.4,46.4,29.80,NNW,332,12.7,12.7,86,0.00,,,0.00,WeatherDisplay:10.37,2013-02-06 03:55:00,
2013-02-06 05:00:00,50.6,45.9,29.79,NW,320,15.0,15.0,84,0.00,,,0.00,WeatherDisplay:10.37,2013-02-06 04:00:00,
2013-02-06 05:05:00,51.1,45.1,29.79,NW,315,11.5,11.5,80,0.00,,,0.00,WeatherDisplay:10.37,2013-02-06 04:05:00,
2013-02-06 05:10:00,51.4,44.8,29.79,NW,316,14.0,14.0,78,0.00,,,0.00,WeatherDisplay:10.37,2013-02-06 04:10:00,
2013-02-06 05:15:00,51.8,43.8,29.79,WNW,303,13.8,13.8,74,0.00,,,0.00,WeatherDisplay:10.37,2013-02-06 04:15:00,
2013-02-06 05:20:00,52.0,42.9,29.79,NW,314,19.6,19.6,71,0.00,,,0.00,WeatherDisplay:10.37,2013-02-06 04:20:00,
2013-02-06 05:25:00,52.2,41.6,29.80,North,359,16.1,16.1,67,0.00,,,0.00,WeatherDisplay:10.37,2013-02-06 04:25:00,
2013-02-06 05:30:00,52.0,41.4,29.80,WNW,289,13.8,13.8,67,0.00,,,0.00,WeatherDisplay:10.37,2013-02-06 04:30:00,
2013-02-06 05:35:00,51.8,40.4,29.80,West,260,17.3,17.3,65,0.00,,,0.00,WeatherDisplay:10.37,2013-02-06 04:35:00,
2013-02-06 05:40:00,51.5,39.7,29.79,WNW,297,15.0,15.0,64,0.00,,,0.00,WeatherDisplay:10.37,2013-02-06 04:40:00,
2013-02-06 05:45:00,51.4,39.6,29.79,WNW,288,10.4,10.4,64,0.00,,,0.00,WeatherDisplay:10.37,2013-02-06 04:45:00,
2013-02-06 05:50:00,51.2,40.2,29.79,West,276,6.9,6.9,66,0.00,,,0.00,WeatherDisplay:10.37,2013-02-06 04:50:00,
2013-02-06 05:55:00,50.3,41.6,29.79,West,260,8.1,8.1,72,0.00,,,0.00,WeatherDisplay:10.37,2013-02-06 04:55:00,
2013-02-06 06:00:00,49.5,42.2,29.79,West,263,10.4,10.4,76,0.00,,,0.00,WeatherDisplay:10.37,2013-02-06 05:00:00,
2013-02-06 06:05:00,48.9,41.3,29.79,WSW,243,10.4,10.4,75,0.00,,,0.00,WeatherDisplay:10.37,2013-02-06 05:05:00,
2013-02-06 06:10:00,48.4,41.2,29.78,WSW,258,9.2,9.2,76,0.00,,,0.00,WeatherDisplay:10.37,2013-02-06 05:10:00,
2013-02-06 06:15:00,48.2,40.6,29.79,WSW,243,9.2,9.2,75,0.00,,,0.00,WeatherDisplay:10.37,2013-02-06 05:15:00,
2013-02-06 06:20:00,48.5,39.2,29.80,WNW,285,13.0,13.0,70,0.00,,,0.00,WeatherDisplay:10.37,2013-02-06 05:20:00,
2013-02-06 06:25:00,49.2,38.7,29.80,West,274,10.4,10.4,67,0.00,,,0.00,WeatherDisplay:10.37,2013-02-06 05:25:00,
2013-02-06 06:30:00,49.4,38.1,29.81,NNW,339,11.5,11.5,65,0.00,,,0.00,WeatherDisplay:10.37,2013-02-06 05:30:00,
2013-02-06 06:35:00,49.5,38.2,29.81,NW,308,16.0,16.0,65,0.00,,,0.00,WeatherDisplay:10.37,2013-02-06 05:35:00,
2013-02-06 06:40:00,49.6,37.9,29.81,West,259,13.8,13.8,64,0.00,,,0.00,WeatherDisplay:10.37,2013-02-06 05:40:00,
2013-02-06 06:45:00,49.7,38.0,29.81,WNW,283,18.4,18.4,64,0.00,,,0.00,WeatherDisplay:10.37,2013-02-06 05:45:00,
2013-02-06 06:50:00,49.7,38.0,29.81,NW,326,21.9,21.9,64,0.00,,,0.00,WeatherDisplay:10.37,2013-02-06 05:50:00,
2013-02-06 06:55:00,49.7,38.0,29.81,WNW,283,17.3,17.3,64,0.00,,,0.00,WeatherDisplay:10.37,2013-02-06 05:55:00,
2013-02-06 07:00:00,49.6,37.1,29.81,WSW,258,20.7,20.7,62,0.00,,,0.00,WeatherDisplay:10.37,2013-02-06 06:00:00,
2013-02-06 07:05:00,49.6,36.7,29.81,NW,322,17.3,17.3,61,0.00,,,0.00,WeatherDisplay:10.37,2013-02-06 06:05:00,
2013-02-06 07:10:00,49.4,36.1,29.81,NNW,329,12.7,12.7,60,0.00,,,0.00,WeatherDisplay:10.37,2013-02-06 06:10:00,
2013-02-06 07:15:00,49.5,36.2,29.81,NW,322,20.7,20.7,60,0.00,,,0.00,WeatherDisplay:10.37,2013-02-06 06:15:00,
2013-02-06 07:20:00,49.4,36.1,29.81,NNW,336,18.4,18.4,60,0.00,,,0.00,WeatherDisplay:10.37,2013-02-06 06:20:00,
2013-02-06 07:25:00,49.1,36.2,29.81,NW,326,18.4,18.4,61,0.00,,,0.00,WeatherDisplay:10.37,2013-02-06 06:25:00,
2013-02-06 07:30:00,48.9,36.0,29.81,North,354,11.5,11.5,61,0.00,,,0.00,WeatherDisplay:10.37,2013-02-06 06:30:00,
2013-02-06 07:35:00,48.9,35.6,29.81,WNW,303,19.6,19.6,60,0.00,,,0.00,WeatherDisplay:10.37,2013-02-06 06:35:00,
2013-02-06 07:40:00,48.9,35.6,29.80,NW,310,23.0,23.0,60,0.00,,,0.00,WeatherDisplay:10.37,2013-02-06 06:40:00,
2013-02-06 07:45:00,48.8,35.5,29.80,NNW,339,19.6,19.6,60,0.00,,,0.00,WeatherDisplay:10.37,2013-02-06 06:45:00,
2013-02-06 07:50:00,48.6,35.7,29.80,WNW,290,24.2,24.2,61,0.00,,,0.00,WeatherDisplay:10.37,2013-02-06 06:50:00,
2013-02-06 07:55:00,48.4,36.0,29.80,NW,310,18.4,18.4,62,0.00,,,0.00,WeatherDisplay:10.37,2013-02-06 06:55:00,
2013-02-06 08:00:00,48.4,36.0,29.80,NW,310,19.6,19.6,62,0.00,,,0.00,WeatherDisplay:10.37,2013-02-06 07:00:00,
2013-02-06 08:05:00,48.2,36.2,29.80,NW,321,13.8,13.8,63,0.00,,,0.00,WeatherDisplay:10.37,2013-02-06 07:05:00,
2013-02-06 08:10:00,48.1,36.1,29.80,NW,312,23.0,23.0,63,0.00,,,0.00,WeatherDisplay:10.37,2013-02-06 07:10:00,
2013-02-06 08:15:00,48.1,36.1,29.80,NNW,329,25.3,25.3,63,0.00,,,0.00,WeatherDisplay:10.37,2013-02-06 07:15:00,
2013-02-06 08:20:00,48.0,36.0,29.81,WNW,282,20.0,20.0,63,0.00,,,0.00,WeatherDisplay:10.37,2013-02-06 07:20:00,
2013-02-06 08:25:00,48.0,36.0,29.81,WNW,298,13.8,13.8,63,0.00,,,0.00,WeatherDisplay:10.37,2013-02-06 07:25:00,
2013-02-06 08:30:00,48.0,36.0,29.82,South,180,18.4,18.4,63,0.00,,,0.00,WeatherDisplay:10.37,2013-02-06 07:30:00,
2013-02-06 08:35:00,48.0,36.0,29.83,NW,326,10.4,10.4,63,0.00,,,0.00,WeatherDisplay:10.37,2013-02-06 07:35:00,
2013-02-06 08:40:00,48.2,36.2,29.83,WNW,285,6.9,6.9,63,0.00,,,0.00,WeatherDisplay:10.37,2013-02-06 07:40:00,
2013-02-06 08:45:00,48.5,36.9,29.83,SSE,156,5.8,5.8,64,0.00,,,0.00,WeatherDisplay:10.37,2013-02-06 07:45:00,
2013-02-06 08:50:00,48.6,36.6,29.83,NNE,31,9.2,9.2,63,0.00,,,0.00,WeatherDisplay:10.37,2013-02-06 07:50:00,
2013-02-06 08:55:00,48.6,37.0,29.83,West,275,5.8,5.8,64,0.00,,,0.00,WeatherDisplay:10.37,2013-02-06 07:55:00,
2013-02-06 09:00:00,48.5,36.5,29.83,NW,308,15.0,15.0,63,0.00,,,0.00,WeatherDisplay:10.37,2013-02-06 08:00:00,
2013-02-06 09:05:00,48.3,36.7,29.83,North,8,12.7,12.7,64,0.00,,,0.00,WeatherDisplay:10.37,2013-02-06 08:05:00,
2013-02-06 09:10:00,48.2,37.0,29.82,WNW,291,13.8,13.8,65,0.00,,,0.00,WeatherDisplay:10.37,2013-02-06 08:10:00,
2013-02-06 09:15:00,48.2,36.6,29.83,NW,305,10.4,10.4,64,0.00,,,0.00,WeatherDisplay:10.37,2013-02-06 08:15:00,
2013-02-06 09:20:00,48.3,37.1,29.83,NW,319,16.1,16.1,65,0.00,,,0.00,WeatherDisplay:10.37,2013-02-06 08:20:00,
2013-02-06 09:25:00,48.4,37.2,29.83,West,260,9.2,9.2,65,0.00,,,0.00,WeatherDisplay:10.37,2013-02-06 08:25:00,
2013-02-06 09:30:00,48.5,37.3,29.83,West,262,10.4,10.4,65,0.00,,,0.00,WeatherDisplay:10.37,2013-02-06 08:30:00,
2013-02-06 09:35:00,48.6,37.4,29.83,NW,322,17.3,17.3,65,0.00,,,0.00,WeatherDisplay:10.37,2013-02-06 08:35:00,
2013-02-06 09:40:00,48.7,37.5,29.83,North,349,10.4,10.4,65,0.00,,,0.00,WeatherDisplay:10.37,2013-02-06 08:40:00,
2013-02-06 09:45:00,49.1,37.8,29.84,North,354,6.9,6.9,65,0.00,,,0.00,WeatherDisplay:10.37,2013-02-06 08:45:00,
2013-02-06 09:50:00,49.5,38.2,29.83,SW,218,3.5,3.5,65,0.00,,,0.00,WeatherDisplay:10.37,2013-02-06 08:50:00,
2013-02-06 09:55:00,49.5,37.8,29.84,NW,319,16.1,16.1,64,0.00,,,0.00,WeatherDisplay:10.37,2013-02-06 08:55:00,
2013-02-06 10:00:00,49.5,37.8,29.84,NNW,339,12.0,12.0,64,0.00,,,0.00,WeatherDisplay:10.37,2013-02-06 09:00:00,
2013-02-06 10:05:00,49.6,38.3,29.84,WNW,289,9.2,9.2,65,0.00,,,0.00,WeatherDisplay:10.37,2013-02-06 09:05:00,
2013-02-06 10:10:00,49.7,37.6,29.84,NW,326,11.5,11.5,63,0.00,,,0.00,WeatherDisplay:10.37,2013-02-06 09:10:00,
2013-02-06 10:15:00,50.0,38.3,29.84,West,263,11.5,11.5,64,0.00,,,0.00,WeatherDisplay:10.37,2013-02-06 09:15:00,
2013-02-06 10:20:00,50.2,38.5,29.84,WNW,291,10.4,10.4,64,0.00,,,0.00,WeatherDisplay:10.37,2013-02-06 09:20:00,
2013-02-06 10:25:00,50.2,38.1,29.84,West,281,15.0,15.0,63,0.00,,,0.00,WeatherDisplay:10.37,2013-02-06 09:25:00,
2013-02-06 10:30:00,50.1,38.0,29.84,West,270,15.0,15.0,63,0.00,,,0.00,WeatherDisplay:10.37,2013-02-06 09:30:00,
2013-02-06 10:35:00,50.4,38.3,29.84,NW,319,9.2,9.2,63,0.00,,,0.00,WeatherDisplay:10.37,2013-02-06 09:35:00,
2013-02-06 10:40:00,50.6,38.1,29.84,WNW,303,14.0,14.0,62,0.00,,,0.00,WeatherDisplay:10.37,2013-02-06 09:40:00,
2013-02-06 10:45:00,50.6,38.5,29.84,North,8,9.2,9.2,63,0.00,,,0.00,WeatherDisplay:10.37,2013-02-06 09:45:00,
2013-02-06 10:50:00,51.0,38.4,29.84,WNW,287,18.4,18.4,62,0.00,,,0.00,WeatherDisplay:10.37,2013-02-06 09:50:00,
2013-02-06 10:56:00,51.0,38.0,29.84,West,264,18.4,18.4,61,0.00,,,0.00,WeatherDisplay:10.37,2013-02-06 09:56:00,
2013-02-06 11:01:00,51.0,38.0,29.84,NNE,15,15.0,15.0,61,0.00,,,0.00,WeatherDisplay:10.37,2013-02-06 10:01:00,
2013-02-06 11:06:00,51.0,38.0,29.84,NNW,334,18.0,18.0,61,0.00,,,0.00,WeatherDisplay:10.37,2013-02-06 10:06:00,
2013-02-06 11:11:00,51.0,37.6,29.84,NW,318,15.0,15.0,60,0.00,,,0.00,WeatherDisplay:10.37,2013-02-06 10:11:00,
2013-02-06 11:16:00,51.4,38.0,29.84,West,276,13.8,13.8,60,0.00,,,0.00,WeatherDisplay:10.37,2013-02-06 10:16:00,
2013-02-06 11:21:00,51.7,38.3,29.83,WSW,253,18.4,18.4,60,0.00,,,0.00,WeatherDisplay:10.37,2013-02-06 10:21:00,
2013-02-06 11:26:00,51.7,38.3,29.84,WNW,293,8.1,8.1,60,0.00,,,0.00,WeatherDisplay:10.37,2013-02-06 10:26:00,
2013-02-06 11:31:00,52.0,38.1,29.84,NW,305,15.0,15.0,59,0.00,,,0.00,WeatherDisplay:10.37,2013-02-06 10:31:00,
2013-02-06 11:36:00,52.4,38.5,29.84,WNW,301,12.7,12.7,59,0.00,,,0.00,WeatherDisplay:10.37,2013-02-06 10:36:00,
2013-02-06 11:41:00,52.2,38.3,29.84,West,274,16.1,16.1,59,0.00,,,0.00,WeatherDisplay:10.37,2013-02-06 10:41:00,
2013-02-06 11:46:00,52.4,38.5,29.84,WSW,241,6.0,6.0,59,0.00,,,0.00,WeatherDisplay:10.37,2013-02-06 10:46:00,
2013-02-06 11:51:00,52.2,37.4,29.84,WNW,291,18.4,18.4,57,0.00,,,0.00,WeatherDisplay:10.37,2013-02-06 10:51:00,
2013-02-06 11:56:00,51.6,37.3,29.83,WNW,285,12.7,12.7,58,0.00,,,0.00,WeatherDisplay:10.37,2013-02-06 10:56:00,
2013-02-06 12:01:00,51.1,37.7,29.83,NW,310,12.7,12.7,60,0.00,,,0.00,WeatherDisplay:10.37,2013-02-06 11:01:00,
2013-02-06 12:06:00,51.1,38.1,29.83,West,279,13.0,13.0,61,0.00,,,0.00,WeatherDisplay:10.37,2013-02-06 11:06:00,
2013-02-06 12:11:00,51.9,38.0,29.83,WNW,299,16.1,16.1,59,0.00,,,0.00,WeatherDisplay:10.37,2013-02-06 11:11:00,
2013-02-06 12:16:00,52.5,38.6,29.83,NW,312,15.0,15.0,59,0.00,,,0.00,WeatherDisplay:10.37,2013-02-06 11:16:00,
2013-02-06 12:21:00,52.6,37.8,29.82,WNW,288,18.4,18.4,57,0.00,,,0.00,WeatherDisplay:10.37,2013-02-06 11:21:00,
2013-02-06 12:26:00,52.6,37.8,29.82,West,276,16.1,16.1,57,0.00,,,0.00,WeatherDisplay:10.37,2013-02-06 11:26:00,
2013-02-06 12:31:00,52.5,37.2,29.82,WNW,287,18.4,18.4,56,0.00,,,0.00,WeatherDisplay:10.37,2013-02-06 11:31:00,
2013-02-06 12:36:00,52.7,37.0,29.82,WSW,253,23.0,23.0,55,0.00,,,0.00,WeatherDisplay:10.37,2013-02-06 11:36:00,
2013-02-06 12:41:00,52.7,36.5,29.81,West,277,23.0,23.0,54,0.00,,,0.00,WeatherDisplay:10.37,2013-02-06 11:41:00,
2013-02-06 12:46:00,52.6,35.5,29.81,WNW,292,19.6,19.6,52,0.00,,,0.00,WeatherDisplay:10.37,2013-02-06 11:46:00,
2013-02-06 12:51:00,52.6,35.5,29.80,West,271,21.0,21.0,52,0.00,,,0.00,WeatherDisplay:10.37,2013-02-06 11:51:00,
2013-02-06 12:56:00,52.7,35.1,29.80,WSW,247,31.1,31.1,51,0.00,,,0.00,WeatherDisplay:10.37,2013-02-06 11:56:00,
2013-02-06 13:01:00,52.8,35.6,29.80,West,266,19.6,19.6,52,0.00,,,0.00,WeatherDisplay:10.37,2013-02-06 12:01:00,
2013-02-06 13:06:00,52.9,36.2,29.79,WNW,282,25.3,25.3,53,0.00,,,0.00,WeatherDisplay:10.37,2013-02-06 12:06:00,
2013-02-06 13:11:00,52.9,36.2,29.80,NW,322,23.0,23.0,53,0.00,,,0.00,WeatherDisplay:10.37,2013-02-06 12:11:00,
2013-02-06 13:16:00,53.0,35.3,29.80,WNW,289,24.2,24.2,51,0.00,,,0.00,WeatherDisplay:10.37,2013-02-06 12:16:00,
2013-02-06 13:21:00,53.0,35.8,29.79,NE,41,28.8,28.8,52,0.00,,,0.00,WeatherDisplay:10.37,2013-02-06 12:21:00,
2013-02-06 13:26:00,52.7,36.0,29.79,WNW,293,24.2,24.2,53,0.00,,,0.00,WeatherDisplay:10.37,2013-02-06 12:26:00,
2013-02-06 13:31:00,52.7,36.5,29.79,West,279,26.5,26.5,54,0.00,,,0.00,WeatherDisplay:10.37,2013-02-06 12:31:00,
2013-02-06 13:36:00,52.7,36.0,29.79,WNW,300,28.0,28.0,53,0.00,,,0.00,WeatherDisplay:10.37,2013-02-06 12:36:00,
2013-02-06 13:41:00,52.9,36.2,29.79,WSW,250,21.9,21.9,53,0.00,,,0.00,WeatherDisplay:10.37,2013-02-06 12:41:00,
2013-02-06 13:46:00,53.1,36.9,29.79,SSW,204,19.6,19.6,54,0.00,,,0.00,WeatherDisplay:10.37,2013-02-06 12:46:00,
2013-02-06 13:51:00,53.3,38.0,29.79,West,279,19.6,19.6,56,0.00,,,0.00,WeatherDisplay:10.37,2013-02-06 12:51:00,
2013-02-06 13:56:00,53.0,37.7,29.78,NW,312,18.4,18.4,56,0.00,CLR,,0.00,WeatherDisplay:10.37,2013-02-06 12:56:00,
2013-02-06 14:01:00,52.5,37.2,29.78,West,279,26.5,26.5,56,0.00,CLR,,0.00,WeatherDisplay:10.37,2013-02-06 13:01:00,
2013-02-06 14:06:00,52.4,37.2,29.78,WSW,258,21.9,21.9,56,0.00,CLR,,0.00,WeatherDisplay:10.37,2013-02-06 13:06:00,
2013-02-06 14:11:00,52.7,37.4,29.78,WNW,282,26.5,26.5,56,0.00,CLR,,0.00,WeatherDisplay:10.37,2013-02-06 13:11:00,
2013-02-06 14:16:00,52.6,36.4,29.78,West,263,26.5,26.5,54,0.00,CLR,,0.00,WeatherDisplay:10.37,2013-02-06 13:16:00,
2013-02-06 14:21:00,52.5,35.4,29.78,WNW,299,28.0,28.0,52,0.00,CLR,,0.00,WeatherDisplay:10.37,2013-02-06 13:21:00,
2013-02-06 14:26:00,52.7,35.6,29.77,WNW,296,34.5,34.5,52,0.00,CLR,,0.00,WeatherDisplay:10.37,2013-02-06 13:26:00,
2013-02-06 14:31:00,52.7,36.0,29.77,NW,321,21.9,21.9,53,0.00,CLR,,0.00,WeatherDisplay:10.37,2013-02-06 13:31:00,
2013-02-06 14:36:00,53.2,36.0,29.77,West,271,29.9,29.9,52,0.00,CLR,,0.00,WeatherDisplay:10.37,2013-02-06 13:36:00,
2013-02-06 14:41:00,53.1,36.4,29.77,West,277,19.6,19.6,53,0.00,CLR,,0.00,WeatherDisplay:10.37,2013-02-06 13:41:00,
2013-02-06 14:46:00,53.1,35.9,29.77,South,172,20.7,20.7,52,0.00,CLR,,0.00,WeatherDisplay:10.37,2013-02-06 13:46:00,
2013-02-06 14:51:00,52.8,35.6,29.77,West,275,24.2,24.2,52,0.00,CLR,,0.00,WeatherDisplay:10.37,2013-02-06 13:51:00,
2013-02-06 14:56:00,52.5,35.8,29.77,WSW,237,28.8,28.8,53,0.00,CLR,,0.00,WeatherDisplay:10.37,2013-02-06 13:56:00,
2013-02-06 15:01:00,52.9,36.2,29.77,WNW,290,20.7,20.7,53,0.00,CLR,,0.00,WeatherDisplay:10.37,2013-02-06 14:01:00,
2013-02-06 15:06:00,53.3,36.1,29.77,WNW,283,23.0,23.0,52,0.00,CLR,,0.00,WeatherDisplay:10.37,2013-02-06 14:06:00,
2013-02-06 15:11:00,52.7,35.6,29.77,South,178,27.6,27.6,52,0.00,CLR,,0.00,WeatherDisplay:10.37,2013-02-06 14:11:00,
2013-02-06 15:16:00,52.7,36.0,29.76,NW,322,24.2,24.2,53,0.00,CLR,,0.00,WeatherDisplay:10.37,2013-02-06 14:16:00,
2013-02-06 15:21:00,52.9,36.2,29.76,WNW,303,26.5,26.5,53,0.00,CLR,,0.00,WeatherDisplay:10.37,2013-02-06 14:21:00,
2013-02-06 15:26:00,52.7,35.6,29.75,WNW,286,37.0,37.0,52,0.00,CLR,,0.00,WeatherDisplay:10.37,2013-02-06 14:26:00,
2013-02-06 15:31:00,52.4,34.8,29.76,West,270,34.5,34.5,51,0.00,,,0.00,WeatherDisplay:10.37,2013-02-06 14:31:00,
2013-02-06 15:36:00,52.6,35.5,29.76,WNW,282,23.0,23.0,52,0.00,CLR,,0.00,WeatherDisplay:10.37,2013-02-06 14:36:00,
2013-02-06 15:41:00,52.8,35.6,29.76,West,269,35.0,35.0,52,0.00,CLR,,0.00,WeatherDisplay:10.37,2013-02-06 14:41:00,
2013-02-06 15:46:00,53.0,35.8,29.76,WNW,301,32.2,32.2,52,0.00,CLR,,0.00,WeatherDisplay:10.37,2013-02-06 14:46:00,
2013-02-06 15:51:00,52.6,35.0,29.76,NW,316,31.1,31.1,51,0.00,CLR,,0.00,WeatherDisplay:10.37,2013-02-06 14:51:00,
2013-02-06 15:56:00,52.1,35.5,29.76,SW,222,25.3,25.3,53,0.00,CLR,,0.00,WeatherDisplay:10.37,2013-02-06 14:56:00,
2013-02-06 16:01:00,52.0,36.3,29.76,WNW,283,19.6,19.6,55,0.00,CLR,,0.00,WeatherDisplay:10.37,2013-02-06 15:01:00,
2013-02-06 16:06:00,52.7,35.6,29.75,WNW,302,40.3,40.3,52,0.00,CLR,,0.00,WeatherDisplay:10.37,2013-02-06 15:06:00,
2013-02-06 16:11:00,52.4,34.8,29.75,West,262,32.2,32.2,51,0.00,CLR,,0.00,WeatherDisplay:10.37,2013-02-06 15:11:00,
2013-02-06 16:16:00,52.4,35.3,29.76,West,270,23.0,23.0,52,0.00,CLR,,0.00,WeatherDisplay:10.37,2013-02-06 15:16:00,
2013-02-06 16:21:00,52.6,34.5,29.75,West,264,29.9,29.9,50,0.00,CLR,,0.00,WeatherDisplay:10.37,2013-02-06 15:21:00,
2013-02-06 16:26:00,52.6,34.5,29.75,SSE,154,31.0,31.0,50,0.00,CLR,,0.00,WeatherDisplay:10.37,2013-02-06 15:26:00,
2013-02-06 16:31:00,52.9,34.2,29.74,WNW,283,28.8,28.8,49,0.00,CLR,,0.00,WeatherDisplay:10.37,2013-02-06 15:31:00,
2013-02-06 16:36:00,53.1,33.9,29.74,North,4,36.8,36.8,48,0.00,CLR,,0.00,WeatherDisplay:10.37,2013-02-06 15:36:00,
2013-02-06 16:41:00,53.4,35.2,29.75,NW,312,29.9,29.9,50,0.00,CLR,,0.00,WeatherDisplay:10.37,2013-02-06 15:41:00,
2013-02-06 16:46:00,53.2,34.5,29.75,WNW,283,42.6,42.6,49,0.00,CLR,,0.00,WeatherDisplay:10.37,2013-02-06 15:46:00,
2013-02-06 16:51:00,53.2,34.0,29.74,West,279,34.5,34.5,48,0.00,CLR,,0.00,WeatherDisplay:10.37,2013-02-06 15:51:00,
2013-02-06 16:56:00,53.1,33.9,29.74,West,276,35.7,35.7,48,0.00,CLR,,0.00,WeatherDisplay:10.37,2013-02-06 15:56:00,
2013-02-06 17:01:00,53.4,34.2,29.74,NW,319,38.0,38.0,48,0.00,CLR,,0.00,WeatherDisplay:10.37,2013-02-06 16:01:00,
2013-02-06 17:06:00,53.2,33.5,29.74,West,274,38.0,38.0,47,0.00,CLR,,0.00,WeatherDisplay:10.37,2013-02-06 16:06:00,
2013-02-06 17:11:00,52.7,33.5,29.74,SW,223,38.0,38.0,48,0.00,CLR,,0.00,WeatherDisplay:10.37,2013-02-06 16:11:00,
2013-02-06 17:16:00,52.4,33.8,29.75,WNW,302,24.2,24.2,49,0.00,CLR,,0.00,WeatherDisplay:10.37,2013-02-06 16:16:00,
2013-02-06 17:21:00,52.2,33.6,29.75,WSW,251,25.3,25.3,49,0.00,CLR,,0.00,WeatherDisplay:10.37,2013-02-06 16:21:00,
2013-02-06 17:26:00,52.1,33.5,29.75,West,274,19.6,19.6,49,0.00,CLR,,0.00,WeatherDisplay:10.37,2013-02-06 16:26:00,
2013-02-06 17:31:00,52.0,33.9,29.75,WNW,295,23.0,23.0,50,0.00,CLR,,0.00,WeatherDisplay:10.37,2013-02-06 16:31:00,
2013-02-06 17:36:00,51.9,34.3,29.75,West,271,16.1,16.1,51,0.00,CLR,,0.00,WeatherDisplay:10.37,2013-02-06 16:36:00,
2013-02-06 17:41:00,52.0,35.9,29.75,West,272,17.0,17.0,54,0.00,CLR,,0.00,WeatherDisplay:10.37,2013-02-06 16:41:00,
2013-02-06 17:46:00,52.2,36.5,29.75,NE,38,11.5,11.5,55,0.00,CLR,,0.00,WeatherDisplay:10.37,2013-02-06 16:46:00,
2013-02-06 17:51:00,52.0,36.8,29.74,West,266,22.0,22.0,56,0.00,CLR,,0.00,WeatherDisplay:10.37,2013-02-06 16:51:00,
2013-02-06 17:56:00,51.9,37.1,29.74,WNW,289,22.0,22.0,57,0.00,CLR,,0.00,WeatherDisplay:10.37,2013-02-06 16:56:00,
2013-02-06 18:01:00,51.8,37.5,29.75,WSW,247,19.6,19.6,58,0.00,CLR,,0.00,WeatherDisplay:10.37,2013-02-06 17:01:00,
2013-02-06 18:06:00,51.6,37.3,29.75,West,259,24.2,24.2,58,0.00,CLR,,0.00,WeatherDisplay:10.37,2013-02-06 17:06:00,
2013-02-06 18:11:00,51.5,37.2,29.74,West,272,18.4,18.4,58,0.00,CLR,,0.00,WeatherDisplay:10.37,2013-02-06 17:11:00,
2013-02-06 18:16:00,51.3,37.0,29.74,West,272,18.4,18.4,58,0.00,CLR,,0.00,WeatherDisplay:10.37,2013-02-06 17:16:00,
2013-02-06 18:21:00,51.1,37.3,29.74,West,259,25.3,25.3,59,0.00,CLR,,0.00,WeatherDisplay:10.37,2013-02-06 17:21:00,
2013-02-06 18:26:00,51.1,36.8,29.74,West,281,19.0,19.0,58,0.00,CLR,,0.00,WeatherDisplay:10.37,2013-02-06 17:26:00,
2013-02-06 18:31:00,51.4,36.2,29.74,NW,317,27.6,27.6,56,0.00,CLR,,0.00,WeatherDisplay:10.37,2013-02-06 17:31:00,
2013-02-06 18:36:00,51.5,35.4,29.74,NW,304,17.3,17.3,54,0.00,CLR,,0.00,WeatherDisplay:10.37,2013-02-06 17:36:00,
2013-02-06 18:41:00,51.5,35.4,29.74,West,276,22.0,22.0,54,0.00,CLR,,0.00,WeatherDisplay:10.37,2013-02-06 17:41:00,
2013-02-06 18:46:00,51.5,35.4,29.74,WNW,295,19.6,19.6,54,0.00,CLR,,0.00,WeatherDisplay:10.37,2013-02-06 17:46:00,
2013-02-06 18:51:00,51.3,35.7,29.74,WNW,301,23.0,23.0,55,0.00,CLR,,0.00,WeatherDisplay:10.37,2013-02-06 17:51:00,
2013-02-06 18:56:00,51.2,35.6,29.73,WNW,285,27.6,27.6,55,0.00,CLR,,0.00,WeatherDisplay:10.37,2013-02-06 17:56:00,
2013-02-06 19:01:00,51.3,35.2,29.73,NW,308,31.1,31.1,54,0.00,CLR,,0.00,WeatherDisplay:10.37,2013-02-06 18:01:00,
2013-02-06 19:06:00,51.5,35.4,29.73,NW,320,38.0,38.0,54,0.00,,,0.00,WeatherDisplay:10.37,2013-02-06 18:06:00,
2013-02-06 19:11:00,51.5,34.9,29.74,West,264,32.0,32.0,53,0.00,CLR,,0.00,WeatherDisplay:10.37,2013-02-06 18:11:00,
2013-02-06 19:16:00,51.5,34.9,29.74,North,4,17.3,17.3,53,0.00,CLR,,0.00,WeatherDisplay:10.37,2013-02-06 18:16:00,
2013-02-06 19:21:00,51.3,35.2,29.74,West,269,19.6,19.6,54,0.00,CLR,,0.00,WeatherDisplay:10.37,2013-02-06 18:21:00,
2013-02-06 19:26:00,51.4,35.3,29.74,West,266,29.0,29.0,54,0.00,CLR,,0.00,WeatherDisplay:10.37,2013-02-06 18:26:00,
2013-02-06 19:31:00,51.4,34.8,29.73,WNW,290,34.5,34.5,53,0.00,CLR,,0.00,WeatherDisplay:10.37,2013-02-06 18:31:00,
2013-02-06 19:35:00,51.5,34.0,29.73,WNW,301,42.6,42.6,51,0.00,CLR,,0.00,WeatherDisplay:10.37,2013-02-06 18:35:00,
2013-02-06 19:36:00,51.5,34.0,29.73,WNW,301,42.6,42.6,51,0.00,CLR,,0.00,WeatherDisplay:10.37,2013-02-06 18:36:00,
2013-02-06 19:41:00,51.5,34.0,29.73,WNW,301,42.6,42.6,51,0.00,CLR,,0.00,WeatherDisplay:10.37,2013-02-06 18:41:00,
2013-02-06 20:27:00,51.5,34.0,29.73,WNW,301,42.6,42.6,51,0.00,CLR,,0.00,WeatherDisplay:10.37,2013-02-06 19:27:00,
2013-02-06 20:32:00,51.5,34.0,29.73,WNW,301,42.6,42.6,51,0.00,CLR,,0.00,WeatherDisplay:10.37,2013-02-06 19:32:00,
2013-02-06 20:37:00,51.5,34.0,29.73,WNW,301,42.6,42.6,51,0.00,CLR,,0.00,WeatherDisplay:10.37,2013-02-06 19:37:00,
2013-02-06 20:48:00,51.5,34.0,29.73,WNW,301,42.6,42.6,51,0.00,CLR,,0.00,WeatherDisplay:10.37,2013-02-06 19:48:00,
2013-02-06 20:59:00,51.5,34.0,29.73,WNW,301,42.6,42.6,51,0.00,CLR,,0.00,WeatherDisplay:10.37,2013-02-06 19:59:00,
2013-02-06 21:09:00,51.5,34.0,29.73,WNW,301,42.6,42.6,51,0.00,CLR,,0.00,WeatherDisplay:10.37,2013-02-06 20:09:00,
2013-02-06 21:37:00,51.5,34.0,29.73,WNW,301,42.6,42.6,51,0.00,CLR,,0.00,WeatherDisplay:10.37,2013-02-06 20:37:00,
2013-02-06 22:00:00,51.5,34.0,29.73,WNW,301,42.6,42.6,51,0.00,CLR,,0.00,WeatherDisplay:10.37,2013-02-06 21:00:00,
2013-02-06 22:12:00,51.5,34.0,29.73,WNW,301,42.6,42.6,51,0.00,CLR,,0.00,WeatherDisplay:10.37,2013-02-06 21:12:00,
2013-02-06 22:17:00,51.5,34.0,29.73,WNW,301,42.6,42.6,51,0.00,CLR,,0.00,WeatherDisplay:10.37,2013-02-06 21:17:00,
2013-02-06 22:23:00,51.5,34.0,29.73,WNW,301,42.6,42.6,51,0.00,CLR,,0.00,WeatherDisplay:10.37,2013-02-06 21:23:00,
2013-02-06 22:32:00,48.5,34.8,29.74,WNW,291,46.0,46.0,59,0.00,CLR,,0.00,WeatherDisplay:10.37,2013-02-06 21:32:00,
2013-02-06 22:37:00,48.6,34.5,29.74,WNW,299,18.4,18.4,58,0.00,CLR,,0.00,WeatherDisplay:10.37,2013-02-06 21:37:00,
2013-02-06 22:42:00,48.6,34.0,29.74,NW,318,20.7,20.7,57,0.00,CLR,,0.00,WeatherDisplay:10.37,2013-02-06 21:42:00,
2013-02-06 22:47:00,48.5,34.4,29.75,WNW,289,23.0,23.0,58,0.00,CLR,,0.00,WeatherDisplay:10.37,2013-02-06 21:47:00,
2013-02-06 22:52:00,48.4,34.7,29.75,SSW,212,21.9,21.9,59,0.00,CLR,,0.00,WeatherDisplay:10.37,2013-02-06 21:52:00,
2013-02-06 22:57:00,48.2,35.0,29.75,WSW,252,19.0,19.0,60,0.00,CLR,,0.00,WeatherDisplay:10.37,2013-02-06 21:57:00,
2013-02-06 23:02:00,48.0,35.2,29.75,WNW,285,17.3,17.3,61,0.00,CLR,,0.00,WeatherDisplay:10.37,2013-02-06 22:02:00,
2013-02-06 23:07:00,48.0,35.2,29.74,NNW,328,26.5,26.5,61,0.00,CLR,,0.00,WeatherDisplay:10.37,2013-02-06 22:07:00,
2013-02-06 23:12:00,47.8,35.0,29.74,NW,315,20.7,20.7,61,0.00,CLR,,0.00,WeatherDisplay:10.37,2013-02-06 22:12:00,
2013-02-06 23:17:00,47.7,35.3,29.74,NW,313,12.7,12.7,62,0.00,CLR,,0.00,WeatherDisplay:10.37,2013-02-06 22:17:00,
2013-02-06 23:22:00,47.6,35.2,29.74,WNW,299,24.2,24.2,62,0.00,CLR,,0.00,WeatherDisplay:10.37,2013-02-06 22:22:00,
2013-02-06 23:27:00,47.6,35.6,29.74,NW,313,19.6,19.6,63,0.00,CLR,,0.00,WeatherDisplay:10.37,2013-02-06 22:27:00,
2013-02-06 23:32:00,47.5,35.5,29.75,WNW,293,19.6,19.6,63,0.00,CLR,,0.00,WeatherDisplay:10.37,2013-02-06 22:32:00,
2013-02-06 23:37:00,47.5,35.9,29.75,WSW,246,11.5,11.5,64,0.00,CLR,,0.00,WeatherDisplay:10.37,2013-02-06 22:37:00,
2013-02-06 23:42:00,47.4,36.2,29.75,West,274,17.3,17.3,65,0.00,CLR,,0.00,WeatherDisplay:10.37,2013-02-06 22:42:00,
2013-02-06 23:47:00,47.3,36.5,29.75,NW,316,19.6,19.6,66,0.00,CLR,,0.00,WeatherDisplay:10.37,2013-02-06 22:47:00,
2013-02-06 23:52:00,47.1,36.7,29.75,West,259,16.1,16.1,67,0.00,CLR,,0.00,WeatherDisplay:10.37,2013-02-06 22:52:00,
2013-02-06 23:57:00,47.1,37.1,29.75,WNW,284,19.6,19.6,68,0.00,CLR,,0.00,WeatherDisplay:10.37,2013-02-06 22:57:00,